Regional Weather Roundup
Issued by NWS

Home | Current Version | Previous Version | Graphics & Text | Print | Product List | Glossary Off
Versions: 1 2 3 4 5 6 7 8 9 10 11 12 13 14 15 16 17 18 19 20 21 22 23 24 25 26 27 28 29 30 31 32 33 34 35 36 37 38 39 40 41 42 43 44 45 46 47 48 49 50

000
ASUS44 KFWD 191615
RWRTX
NORTH TEXAS HOURLY WEATHER ROUNDUP
NATIONAL WEATHER SERVICE FORT WORTH TX
1100 AM CDT THU OCT 19 2017

NOTE: "FAIR" INDICATES FEW OR NO CLOUDS BELOW 12,000 FEET WITH NO
SIGNIFICANT WEATHER AND/OR OBSTRUCTIONS TO VISIBILITY.

TXZ118-119-191700-
DALLAS/FORT WORTH METROPLEX

CITY           SKY/WX    TMP DP  RH WIND       PRES   REMARKS
DFW AIRPORT    PTSUNNY   75  57  53 S12       30.16F
DALLAS LOVE    CLOUDY    74  56  53 S9        30.18S
FTW MEACHAM    SUNNY     74  60  61 S9        30.17S
DAL-EXECUTIVE  SUNNY     72  59  63 VRB5      30.18S
FTW-ALLIANCE   MOSUNNY   73  58  59 S9        30.17S
FTW-NAS-JRB    MOSUNNY   76  59  55 S8        30.18R
FTW-SPINKS     SUNNY     73  59  60 S8        30.19S
ARLINGTON      SUNNY     70  61  73 S10       30.18S
GRAND PRAIRIE  SUNNY     68  57  68 S9        30.19F SMOKE
ADDISON        SUNNY     72  55  56 S10       30.18F
MESQUITE       SUNNY     70  57  64 SE7       30.20R
LANCASTER      MOSUNNY   70  59  69 S8        30.20S
$$

TXZ091>094-102>105-117-120-121-131>134-191700-
NORTH CENTRAL TEXAS

CITY           SKY/WX    TMP DP  RH WIND       PRES   REMARKS
SHRMAN/DENISON MOSUNNY   69  57  66 S7        30.21S
GAINESVILLE    MOSUNNY   71  56  58 S15       30.20S
BOWIE          MOSUNNY   71  58  64 S8        30.18S
BRIDGEPORT     MOSUNNY   71  58  63 SW5       30.19S
DECATUR        MOSUNNY   69  57  65 S9G16     30.17S
DENTON         PTSUNNY   70  59  68 S8        30.18S
MCKINNEY       PTSUNNY   69  59  70 S8        30.19S
BONHAM         CLOUDY    71  58  64 S7        30.21S
GREENVILLE     PTSUNNY   73  61  64 SE7       30.21S
ROCKWALL       MOSUNNY   71  59  66 S12G17    30.20R
TERRELL        MOSUNNY   74  55  51 S13       30.20R
WAXAHACHIE     MOSUNNY   69  61  76 SE5       30.20S
CLEBURNE       SUNNY     68  63  83 S9        30.20S
GRANBURY       SUNNY     74  59  59 SE9       30.19S
$$

TXZ083>090-098>101-113>116-127>130-139>142-154-155-191700-
WESTERN NORTH TEXAS

CITY           SKY/WX    TMP DP  RH WIND       PRES   REMARKS
WICHITA FALLS  CLOUDY    69  51  52 S14       30.15S
WF-KICKAPOO    MOSUNNY   68  52  55 S12G20    30.18S
VERNON         MOSUNNY   69  46  42 S9        30.15R
ABILENE        SUNNY     70  53  54 S13       30.15S
ABILENE-DYESS  SUNNY     71  55  56 S13       30.14R
GRAHAM           N/A     71  54  55 SE6       30.16S
BRECKENRIDGE   SUNNY     73  53  49 S10       30.16S
CISCO          SUNNY     70  55  60 S14G20    30.17S
EASTLAND       SUNNY     69  56  62 S10       30.17S
RANGER         SUNNY     69  57  66 S12G17    30.18R
MINERAL WELLS  SUNNY     71  56  58 S9        30.16S
STEPHENVILLE   SUNNY     70  58  65 S8        30.20F
COMANCHE       SUNNY     71  58  63 S8G16     30.18S
COLEMAN        SUNNY     67  53  61 S14       30.17S
$$

TXZ143>147-156>162-174-175-191700-
CENTRAL TEXAS

CITY           SKY/WX    TMP DP  RH WIND       PRES   REMARKS
WACO           MOSUNNY   72  61  68 S7        30.18S
WACO-MCGREGOR  MOSUNNY   74  62  66 S8        30.18S
HILLSBORO      MOSUNNY   72  62  71 S9        30.19S
MEXIA          MOSUNNY   73  59  61 S15       30.18S
HEARNE         PTSUNNY   75  63  65 E3        30.18S
CAMERON        MOSUNNY   74  62  67 SE5       30.17S HAZE
TEMPLE         MOSUNNY   72  62  71 S7        30.19R
KILLEEN        CLOUDY    71  61  70 SE9       30.17S
KILLEEN-SKYLRK PTSUNNY   71  63  75 VRB5      30.18S
FORT HOOD      PTSUNNY   70  61  73 S9        30.14S
GATESVILLE     MOSUNNY   72  59  64 S7        30.20S
HAMILTON       MOSUNNY   69  61  76 SW12      30.20R
LAMPASAS       SUNNY     71  64  79 S6        30.17S
$$

TXZ095>097-106>112-122>126-135>138-148>153-164>167-191700-
EAST TEXAS

CITY           SKY/WX    TMP DP  RH WIND       PRES   REMARKS
PARIS          SUNNY     71  61  70 VRB5      30.22S
SULPHUR SPRNGS CLOUDY    71  59  64 S6        30.23S
MOUNT PLEASANT MOSUNNY   70  60  70 CALM      30.23S
GILMER         MOSUNNY   70  59  69 CALM      30.21S
MINEOLA        CLOUDY    73  61  64 CALM      30.20F
TYLER          MOSUNNY   74  58  57 S7        30.20S
LONGVIEW       MOSUNNY   73  62  68 VRB3      30.20F
MARSHALL       MOSUNNY   70  58  65 E3        30.24F
ATHENS         MOSUNNY   70  59  68 S5        30.19S
PALESTINE      MOSUNNY   72  63  72 SE3       30.20S
JACKSONVILLE   MOSUNNY   72  62  69 NE5       30.21S
HENDERSON      MOSUNNY   75  58  57 E7        30.22S
CENTER         SUNNY     72  64  73 E3        30.23S
NACOGDOCHES    MOSUNNY   73  62  68 E5        30.21S
LUFKIN         MOSUNNY   73  63  70 E9        30.19F
$$

SUPPLEMENTAL OBSERVATIONS (NWS FORT WORTH AREA)

CITY           SKY/WX    TMP DP  RH WIND       PRES   REMARKS
DENISON DAM      N/A     70  57  64 S3          N/A
CADDO GRASSLND   N/A     72  59  64 S7          N/A
PAT MAYSE LAKE   N/A     70  63  78 S2          N/A
GREENVILLE       N/A     72  59  64 SE6         N/A
CEDAR HILL       N/A     73  59  60 S5          N/A
LBJ GRASSLAND    N/A     72  57  60 SE8         N/A
POSSUM KINGDOM   N/A     73  55  53 S12         N/A
GRANBURY         N/A     73  57  56 S10         N/A
COMANCHE         N/A     73  57  56 S12         N/A
MCGREGOR         N/A    N/A N/A N/A S6          N/A
TEMPLE           N/A     75  61  60 S3          N/A
LAKE LIMESTONE   N/A     75  61  60 SE3         N/A
ATHENS           N/A    N/A N/A N/A S7          N/A
$$

SUPPLEMENTAL OBSERVATIONS (NWS NORMAN AREA)

CITY           SKY/WX    TMP DP  RH WIND       PRES   REMARKS
GOODLETT         N/A     68  48  47 S12       30.13S
ODELL            N/A     69  50  50 S10       30.16S
CROWELL          N/A     71  51  50 S12       30.15S
KNOX CITY        N/A     73  51  46 S16       30.14S
SEYMOUR          N/A     71  52  50 S9        30.16S
MILLERS CREEK    N/A     72  54  53 S13         N/A
$$

SUPPLEMENTAL OBSERVATIONS (NWS SAN ANGELO AREA)

CITY           SKY/WX    TMP DP  RH WIND       PRES   REMARKS
WEINERT          N/A     72  53  51 S15       30.15S
HASKELL          N/A     71  50  48 S15       30.15S
THROCKMORTON     N/A     73  53  50 S12       30.17S
STAMFORD         N/A     73  52  48 S16       30.15F
CLYDE            N/A     71  53  52 S16       30.17S
HAMBY            N/A     73  50  43 S16G22      N/A
IVIE RESERVOIR   N/A     70  55  60 SE12        N/A
COLORADO BEND    N/A     72  57  60 S9          N/A
$$

SUPPLEMENTAL OBSERVATIONS (NWS SHREVEPORT AREA)

CITY           SKY/WX    TMP DP  RH WIND       PRES   REMARKS
CLARKSVILLE      N/A     73  57  56 S5          N/A
TEXARKANA        N/A     73  59  60 S2          N/A
LINDEN           N/A     75  57  53 NE2         N/A
CADDO LAKE       N/A     77  59  53 SE1         N/A
GILMER           N/A     73  59  60 E3          N/A
HENDERSON        N/A     77  59  53 SE5         N/A
LUFKIN           N/A     73  63  68 MISG        N/A
N SABINE NF      N/A     70  63  78 MISG        N/A
S SABINE NF      N/A     75  61  60 SE3         N/A
$$

SUPPLEMENTAL OBSERVATIONS ARE A COLLECTION OF AUTOMATED INSTRUMENTS
THAT ARE MAINTAINED BY A VARIETY OF FEDERAL AND STATE AGENCIES.
CERTAIN ELEMENTS...SUCH AS HUMIDITY VALUES AND SUSTAINED WIND
SPEEDS...MAY BE APPROXIMATED.




USA.gov is the U.S. government's official web portal to all federal, state and local government web resources and services.